Time,TemperatureF,DewpointF,PressureIn,WindDirection,WindDirectionDegrees,WindSpeedMPH,WindSpeedGustMPH,Humidity,HourlyPrecipIn,Conditions,Clouds,dailyrainin,SoftwareType,DateUTC
2013-06-05 00:02:00,76.6,74.1,29.93,SSE,157,1.0,1.0,92,0.00,,,0.00,meteohub,2013-06-05 05:02:00,
2013-06-05 00:17:00,76.8,73.9,29.94,SSE,157,0.0,1.0,91,0.00,,,0.00,meteohub,2013-06-05 05:17:00,
2013-06-05 00:32:00,76.8,73.9,29.94,SSE,154,0.0,1.0,91,0.00,,,0.00,meteohub,2013-06-05 05:32:00,
2013-06-05 00:47:00,76.6,73.8,29.93,SSE,154,0.0,0.0,91,0.00,,,0.00,meteohub,2013-06-05 05:47:00,
2013-06-05 01:17:00,76.3,73.8,29.93,SSE,154,0.0,0.0,92,0.00,,,0.00,meteohub,2013-06-05 06:17:00,
2013-06-05 01:32:00,76.3,73.8,29.92,SSE,154,0.0,1.0,92,0.00,,,0.00,meteohub,2013-06-05 06:32:00,
2013-06-05 01:47:00,75.9,73.4,29.92,SSE,154,0.0,0.0,92,0.00,,,0.00,meteohub,2013-06-05 06:47:00,
2013-06-05 02:02:00,75.7,73.6,29.91,SSE,154,0.0,1.0,93,0.00,,,0.00,meteohub,2013-06-05 07:02:00,
2013-06-05 02:17:00,75.7,73.6,29.90,SSE,154,0.0,0.0,93,0.00,,,0.00,meteohub,2013-06-05 07:17:00,
2013-06-05 02:32:00,75.6,73.4,29.91,SSE,154,0.0,0.0,93,0.00,,,0.00,meteohub,2013-06-05 07:32:00,
2013-06-05 02:47:00,75.4,73.2,29.91,SSE,154,0.0,0.0,93,0.00,,,0.00,meteohub,2013-06-05 07:47:00,
2013-06-05 03:02:00,75.4,73.2,29.91,SSE,154,0.0,0.0,93,0.00,,,0.00,meteohub,2013-06-05 08:02:00,
2013-06-05 03:17:00,75.0,73.2,29.91,SSE,154,0.0,0.0,94,0.00,,,0.00,meteohub,2013-06-05 08:17:00,
2013-06-05 03:32:00,75.0,73.2,29.91,SSE,154,0.0,0.0,94,0.00,,,0.00,meteohub,2013-06-05 08:32:00,
2013-06-05 03:47:00,74.8,73.0,29.91,SSE,154,0.0,0.0,94,0.00,,,0.00,meteohub,2013-06-05 08:47:00,
2013-06-05 04:02:00,74.7,72.9,29.91,SSE,154,0.0,0.0,94,0.00,,,0.00,meteohub,2013-06-05 09:02:00,
2013-06-05 04:17:00,74.7,72.9,29.92,SSE,154,0.0,0.0,94,0.00,,,0.00,meteohub,2013-06-05 09:17:00,
2013-06-05 04:32:00,74.5,72.7,29.92,SSE,154,0.0,0.0,94,0.00,,,0.00,meteohub,2013-06-05 09:32:00,
2013-06-05 04:47:00,74.5,72.7,29.92,SSE,154,0.0,0.0,94,0.00,,,0.00,meteohub,2013-06-05 09:47:00,
2013-06-05 05:02:00,74.5,73.0,29.91,SSE,154,0.0,0.0,95,0.00,,,0.00,meteohub,2013-06-05 10:02:00,
2013-06-05 05:17:00,74.3,72.9,29.92,SSE,154,0.0,0.0,95,0.00,,,0.00,meteohub,2013-06-05 10:17:00,
2013-06-05 05:32:00,74.1,72.7,29.92,SSE,154,0.0,0.0,95,0.00,,,0.00,meteohub,2013-06-05 10:32:00,
2013-06-05 05:47:00,74.1,72.7,29.92,SSE,154,0.0,0.0,95,0.00,,,0.00,meteohub,2013-06-05 10:47:00,
2013-06-05 06:02:00,74.1,72.7,29.92,SSE,154,0.0,0.0,95,0.00,,,0.00,meteohub,2013-06-05 11:02:00,
2013-06-05 06:17:00,74.1,72.7,29.93,SSE,154,0.0,0.0,95,0.00,,,0.00,meteohub,2013-06-05 11:17:00,
2013-06-05 06:32:00,74.5,73.0,29.93,SSE,154,0.0,0.0,95,0.00,,,0.00,meteohub,2013-06-05 11:32:00,
2013-06-05 06:47:00,74.8,73.2,29.93,SSE,154,0.0,0.0,95,0.00,,,0.00,meteohub,2013-06-05 11:47:00,
2013-06-05 07:02:00,75.2,73.4,29.93,SSE,154,0.0,0.0,94,0.00,,,0.00,meteohub,2013-06-05 12:02:00,
2013-06-05 07:17:00,75.6,73.8,29.93,SSE,154,0.0,0.0,94,0.00,,,0.00,meteohub,2013-06-05 12:17:00,
2013-06-05 07:32:00,76.3,74.1,29.94,SE,127,0.0,2.0,93,0.00,,,0.00,meteohub,2013-06-05 12:32:00,
2013-06-05 07:47:00,77.0,74.8,29.93,SE,127,0.0,1.0,93,0.00,,,0.00,meteohub,2013-06-05 12:47:00,
2013-06-05 08:02:00,78.1,75.6,29.94,SE,125,0.0,2.0,92,0.00,,,0.00,meteohub,2013-06-05 13:02:00,
2013-06-05 08:17:00,79.2,75.6,29.93,South,181,0.0,1.0,89,0.00,,,0.00,meteohub,2013-06-05 13:17:00,
2013-06-05 08:32:00,79.7,75.2,29.93,SSW,208,0.0,2.0,86,0.00,,,0.00,meteohub,2013-06-05 13:32:00,
2013-06-05 08:47:00,80.1,75.6,29.94,SSW,199,0.0,3.0,86,0.00,,,0.00,meteohub,2013-06-05 13:47:00,
2013-06-05 09:02:00,80.4,75.2,29.93,NE,54,0.0,2.0,84,0.00,,,0.00,meteohub,2013-06-05 14:02:00,
2013-06-05 09:17:00,80.2,75.4,29.94,NE,34,0.0,2.0,85,0.00,,,0.00,meteohub,2013-06-05 14:17:00,
2013-06-05 09:32:00,81.0,75.7,29.94,South,181,0.0,2.0,84,0.00,,,0.00,meteohub,2013-06-05 14:32:00,
2013-06-05 09:47:00,81.0,75.4,29.94,South,178,0.0,2.0,83,0.00,,,0.00,meteohub,2013-06-05 14:47:00,
2013-06-05 10:02:00,79.7,75.6,29.94,SE,138,0.0,2.0,87,0.00,,,0.00,meteohub,2013-06-05 15:02:00,
2013-06-05 10:17:00,79.3,75.7,29.94,SE,138,0.0,2.0,89,0.00,,,0.00,meteohub,2013-06-05 15:17:00,
2013-06-05 10:32:00,79.9,75.0,29.94,NW,308,3.0,4.0,85,0.00,,,0.00,meteohub,2013-06-05 15:32:00,
2013-06-05 10:47:00,80.4,75.9,29.94,NW,315,4.0,5.0,86,0.00,,,0.00,meteohub,2013-06-05 15:47:00,
2013-06-05 11:02:00,80.6,75.4,29.94,WNW,302,0.0,5.0,84,0.00,,,0.00,meteohub,2013-06-05 16:02:00,
2013-06-05 11:17:00,78.6,75.0,29.94,SSW,196,0.0,4.0,89,0.10,,,0.10,meteohub,2013-06-05 16:17:00,
2013-06-05 11:32:00,78.6,75.4,29.94,South,191,8.0,8.0,90,0.11,,,0.11,meteohub,2013-06-05 16:32:00,
2013-06-05 11:47:00,79.3,75.2,29.94,SW,216,8.0,12.0,87,0.11,,,0.11,meteohub,2013-06-05 16:47:00,
2013-06-05 12:02:00,79.9,74.7,29.94,SW,222,4.0,9.0,84,0.11,,,0.11,meteohub,2013-06-05 17:02:00,
2013-06-05 12:17:00,79.3,74.8,29.94,SW,214,2.0,8.0,86,0.01,,,0.11,meteohub,2013-06-05 17:17:00,
2013-06-05 12:32:00,79.7,75.2,29.93,SW,229,1.0,4.0,86,0.00,,,0.11,meteohub,2013-06-05 17:32:00,
2013-06-05 12:47:00,80.6,75.7,29.93,WSW,247,3.0,4.0,85,0.00,,,0.11,meteohub,2013-06-05 17:47:00,
2013-06-05 13:02:00,81.9,76.5,29.92,South,186,3.0,5.0,84,0.00,,,0.11,meteohub,2013-06-05 18:02:00,
2013-06-05 13:17:00,82.8,77.0,29.91,SSW,213,8.0,9.0,83,0.00,,,0.11,meteohub,2013-06-05 18:17:00,
2013-06-05 13:32:00,82.6,76.5,29.90,SSW,212,7.0,15.0,82,0.00,,,0.11,meteohub,2013-06-05 18:32:00,
2013-06-05 13:47:00,82.6,76.8,29.90,SSW,192,11.0,14.0,83,0.00,,,0.11,meteohub,2013-06-05 18:47:00,
2013-06-05 14:02:00,82.2,76.8,29.89,SSW,199,12.0,16.0,84,0.00,,,0.11,meteohub,2013-06-05 19:02:00,
2013-06-05 14:17:00,82.4,77.0,29.88,SSW,199,7.0,16.0,84,0.00,,,0.11,meteohub,2013-06-05 19:17:00,
2013-06-05 14:32:00,83.1,77.0,29.88,South,185,11.0,16.0,82,0.00,,,0.11,meteohub,2013-06-05 19:32:00,
2013-06-05 14:47:00,84.4,76.5,29.87,SSW,193,11.0,16.0,77,0.00,,,0.11,meteohub,2013-06-05 19:47:00,
2013-06-05 15:02:00,85.1,77.0,29.86,South,190,5.0,14.0,77,0.00,,,0.11,meteohub,2013-06-05 20:02:00,
2013-06-05 15:17:00,86.7,75.7,29.86,South,171,5.0,13.0,70,0.00,,,0.11,meteohub,2013-06-05 20:17:00,
2013-06-05 15:32:00,87.4,75.6,29.86,South,187,3.0,10.0,68,0.00,,,0.11,meteohub,2013-06-05 20:32:00,
2013-06-05 15:47:00,87.6,75.4,29.85,SSW,202,5.0,11.0,67,0.00,,,0.11,meteohub,2013-06-05 20:47:00,
2013-06-05 16:02:00,88.0,74.7,29.85,SSE,156,4.0,8.0,65,0.00,,,0.11,meteohub,2013-06-05 21:02:00,
2013-06-05 16:17:00,88.0,75.2,29.85,SSW,203,5.0,11.0,66,0.00,,,0.11,meteohub,2013-06-05 21:17:00,
2013-06-05 16:32:00,86.9,74.1,29.85,SSW,198,4.0,11.0,66,0.00,,,0.11,meteohub,2013-06-05 21:32:00,
2013-06-05 16:47:00,87.6,75.7,29.85,ESE,111,2.0,9.0,68,0.00,,,0.11,meteohub,2013-06-05 21:47:00,
2013-06-05 17:02:00,86.7,75.4,29.85,SSE,147,0.0,5.0,69,0.00,,,0.11,meteohub,2013-06-05 22:02:00,
2013-06-05 17:17:00,85.8,74.8,29.84,South,189,2.0,4.0,70,0.00,,,0.11,meteohub,2013-06-05 22:17:00,
2013-06-05 17:32:00,86.9,74.7,29.84,SW,215,7.0,7.0,67,0.00,,,0.11,meteohub,2013-06-05 22:32:00,
2013-06-05 17:47:00,86.7,73.6,29.84,SSW,202,6.0,9.0,65,0.00,,,0.11,meteohub,2013-06-05 22:47:00,
2013-06-05 18:02:00,85.8,73.6,29.84,South,179,2.0,8.0,67,0.00,,,0.11,meteohub,2013-06-05 23:02:00,
2013-06-05 18:17:00,86.2,73.9,29.85,SSW,195,3.0,8.0,67,0.00,,,0.11,meteohub,2013-06-05 23:17:00,
2013-06-05 18:32:00,85.6,73.9,29.85,South,172,3.0,7.0,68,0.00,,,0.11,meteohub,2013-06-05 23:32:00,
2013-06-05 18:47:00,83.8,73.4,29.86,South,191,3.0,7.0,71,0.00,,,0.11,meteohub,2013-06-05 23:47:00,
2013-06-05 19:02:00,83.5,73.9,29.86,South,174,1.0,5.0,73,0.00,,,0.11,meteohub,2013-06-06 00:02:00,
2013-06-05 19:17:00,82.8,73.6,29.86,SSW,192,0.0,4.0,74,0.00,,,0.11,meteohub,2013-06-06 00:17:00,
2013-06-05 19:32:00,81.7,73.4,29.87,SSW,194,0.0,3.0,76,0.00,,,0.11,meteohub,2013-06-06 00:32:00,
2013-06-05 19:47:00,81.0,73.4,29.87,SSW,194,0.0,3.0,78,0.00,,,0.11,meteohub,2013-06-06 00:47:00,
2013-06-05 20:02:00,80.1,73.0,29.87,SSW,194,0.0,1.0,79,0.00,,,0.11,meteohub,2013-06-06 01:02:00,
2013-06-05 20:17:00,79.5,73.2,29.87,SSW,194,0.0,1.0,81,0.00,,,0.11,meteohub,2013-06-06 01:17:00,
2013-06-05 20:32:00,79.0,73.4,29.87,SSE,149,0.0,2.0,83,0.00,,,0.11,meteohub,2013-06-06 01:32:00,
2013-06-05 20:47:00,78.4,73.2,29.88,SSE,149,0.0,0.0,84,0.00,,,0.11,meteohub,2013-06-06 01:47:00,
2013-06-05 21:02:00,77.9,73.4,29.89,SSE,149,0.0,0.0,86,0.00,,,0.11,meteohub,2013-06-06 02:02:00,
2013-06-05 21:17:00,77.7,73.2,29.90,SSE,149,0.0,0.0,86,0.00,,,0.11,meteohub,2013-06-06 02:17:00,
2013-06-05 21:32:00,77.7,73.2,29.91,SSE,149,0.0,0.0,86,0.00,,,0.11,meteohub,2013-06-06 02:32:00,
2013-06-05 21:47:00,77.7,73.2,29.92,SSE,149,0.0,0.0,86,0.00,,,0.11,meteohub,2013-06-06 02:47:00,
2013-06-05 22:02:00,77.7,73.2,29.93,SSE,149,0.0,0.0,86,0.00,,,0.11,meteohub,2013-06-06 03:02:00,
2013-06-05 22:17:00,77.7,72.9,29.94,SSE,149,0.0,1.0,85,0.00,,,0.11,meteohub,2013-06-06 03:17:00,
2013-06-05 22:32:00,77.4,70.3,29.96,NNW,331,5.0,11.0,79,0.00,,,0.11,meteohub,2013-06-06 03:32:00,
2013-06-05 22:47:00,71.8,67.3,29.94,NNE,21,0.0,14.0,86,0.02,,,0.13,meteohub,2013-06-06 03:47:00,
2013-06-05 23:02:00,69.4,66.7,29.92,East,98,3.0,12.0,91,0.03,,,0.14,meteohub,2013-06-06 04:02:00,
2013-06-05 23:17:00,68.9,66.6,29.91,ENE,73,1.0,5.0,92,0.03,,,0.14,meteohub,2013-06-06 04:17:00,
2013-06-05 23:32:00,68.5,66.4,29.90,ESE,106,1.0,3.0,93,0.03,,,0.14,meteohub,2013-06-06 04:32:00,
2013-06-05 23:47:00,68.7,66.6,29.88,ENE,69,0.0,4.0,93,0.01,,,0.14,meteohub,2013-06-06 04:47:00,